Regional Weather Roundup
Issued by NWS

Home | Current Version | Previous Version | Text Only | Print | Product List | Glossary Off
Versions: 1 2 3 4 5 6 7 8 9 10 11 12 13 14 15 16 17 18 19 20 21 22 23 24 25 26 27 28 29 30 31 32 33 34 35 36 37 38 39 40 41 42 43 44 45 46 47 48 49 50

000
ASUS43 KIND 022359
RWRIN

WEATHER ROUNDUP FOR INDIANA
NATIONAL WEATHER SERVICE INDIANAPOLIS IN
800 PM EDT SUN AUG 02 2015

NOTE: "FAIR" INDICATES FEW OR NO CLOUDS BELOW 12,000 FEET WITH NO
SIGNIFICANT WEATHER AND/OR OBSTRUCTIONS TO VISIBILITY.

* - STATION DOES NOT REPORT WEATHER SUCH AS PRECIPITATION OR FOG.

+ - STATION NOT QUALITY CONTROLLED BY THE NATIONAL WEATHER SERVICE.
    USE DATA WITH CAUTION...ESPECIALLY DEWPOINT AND RELATIVE
    HUMIDITY OBSERVATIONS.

INZ001>003-010>013-019-020-030100-
NORTHWEST INDIANA

CITY           SKY/WX    TMP DP  RH WIND       PRES   REMARKS
GARY /AIRPORT/ MOSUNNY   88  70  55 SW22G37   29.69F
KNOX *+        SUNNY     86  63  45 SW20G25   29.72F
MONTICELLO +   SUNNY     85  71  61 SW12      29.77S
6HR MIN TEMP:  85; 6HR MAX TEMP:  90;

RENSSELAER +   SUNNY     84  68  58 SW13G22   29.75F

$$

LMZ046-743>745-030100-
SOUTHERN LAKE MICHIGAN

STATION/POSITION TIME  TEMP    WIND        PRES    WAVE
                       AIR SEA DIR/SP/G            HT
                 (UTC) (F)     (DEG/KT/KT) (MB)    (FT)
BURNS HARBOR     2323   87     230/ 20/ 26 1005.8R
MICHIGAN CITY    2300   86     190/ 21/ 28   N/A
5NW MICH CITY    2300   83 74  240/ 17/ 25   N/A     4

$$

INZ004-005-014>016-021>024-030100-
NORTH CENTRAL INDIANA

CITY           SKY/WX    TMP DP  RH WIND       PRES   REMARKS
GOSHEN         MOCLDY    85  66  53 SW20      29.72F
6HR MIN TEMP:  84; 6HR MAX TEMP:  90;

SOUTH BEND     MOSUNNY   88  66  48 SW16      29.70F
6HR MIN TEMP:  87; 6HR MAX TEMP:  94;

WARSAW +       CLOUDY    86  66  51 SW9G16    29.75F

$$

INZ006>009-017-018-025>027-030100-
NORTHEAST INDIANA

CITY           SKY/WX    TMP DP  RH WIND       PRES   REMARKS
ANGOLA *+      CLEAR     84  79  84 SW13      29.74F HX  96
FORT WAYNE     MOCLDY    84  66  54 SW15      29.79S
6HR MIN TEMP:  84; 6HR MAX TEMP:  90;


$$

INZ028-029-035-036-043>045-051>053-030100-
WEST CENTRAL INDIANA

CITY           SKY/WX    TMP DP  RH WIND       PRES   REMARKS
CRAWFORDSVL +  MOSUNNY   81  66  61 S8          N/A
6HR MIN TEMP:  81; 6HR MAX TEMP:  85;

GREENCASTLE +  PTCLDY    82  64  54 S5        29.85F
LAFAYETTE      SUNNY     85  70  60 SW7       29.78F
6HR MIN TEMP:  85; 6HR MAX TEMP:  89;

TERRE HAUTE    SUNNY     85  71  63 S12       29.84F
6HR MIN TEMP:  85; 6HR MAX TEMP:  91;


$$

INZ030>032-037>040-046>048-054>057-064-065-030100-
CENTRAL INDIANA

CITY           SKY/WX    TMP DP  RH WIND       PRES   REMARKS
FRANKFORT +    CLEAR     83  71  66 S7        29.83F
6HR MIN TEMP:  83; 6HR MAX TEMP:  87;

GREENWOOD *+   CLEAR     82  63  51 S7        29.86F
INDIANAPOLIS   PTCLDY    83  66  56 S17       29.83F
6HR MIN TEMP:  83; 6HR MAX TEMP:  88;

-EAGLE CREEK   CLEAR     84  68  58 SW8G21    29.83F
6HR MIN TEMP:  84; 6HR MAX TEMP:  87;

KOKOMO *+      CLEAR     84  66  54 SW16G23   29.81S
6HR MIN TEMP:  84; 6HR MAX TEMP:  90;

MT COMFORT *+  CLEAR     82  59  44 SW8       29.86S
SHELBYVILLE    CLEAR     83  66  56 S7        29.85F
6HR MIN TEMP:  83; 6HR MAX TEMP:  88;


$$

INZ033-034-041-042-049-050-058-059-030100-
EAST CENTRAL INDIANA

CITY           SKY/WX    TMP DP  RH WIND       PRES   REMARKS
MUNCIE         CLEAR     82  63  52 SW14G20   29.83F
6HR MIN TEMP:  82; 6HR MAX TEMP:  86;


$$

INZ060-061-067>069-081>083-085>088-030100-
SOUTHWEST INDIANA

CITY           SKY/WX    TMP DP  RH WIND       PRES   REMARKS
EVANSVILLE     MOSUNNY   86  68  54 S9        29.89F
6HR MIN TEMP:  86; 6HR MAX TEMP:  90;

HUNTINGBURG *+ CLEAR     82  64  54 S7        29.90S
6HR MIN TEMP:  82; 6HR MAX TEMP:  88;


$$

INZ062-063-066-070>080-084-089>092-030100-
SOUTH CENTRAL AND SOUTHEAST INDIANA

CITY           SKY/WX    TMP DP  RH WIND       PRES   REMARKS
BLOOMINGTON    CLEAR     83  66  56 S8        29.87F
6HR MIN TEMP:  83; 6HR MAX TEMP:  88;

MADISON *+     CLEAR     81  61  50 CALM      29.92S
SEYMOUR +      CLEAR     82  68  61 SW6       29.88

$$



USA.gov is the U.S. government's official web portal to all federal, state and local government web resources and services.